Flag for Germany Weather past 2 weeks in Herzogenrath, North Rhine-Westphalia, Germany

Now
66 °F

Broken clouds.


Feels Like: 66 °F
Forecast: 53 / 71 °F
Wind: 7 mph from West

Location: Geilenkirchen Airport

Current Time: May 4, 2015 at 3:31:38 PM

Latest Report: May 4, 2015 at 2:50 PM


Visibility: N/A

Pressure: 29.80 "Hg

Humidity: 56%

Dew point: 50 °F

Location of HerzogenrathLocation

Historic Weather in Herzogenrath — Graph

°F

Herzogenrath temperature yesterday

Maximum temperature yesterday: 63 °F (at 6:50 PM)
Minimum temperature yesterday: 59 °F (at 10:50 PM)
Average temperature yesterday: 61 °F

Past Weeks' High & Low Weather Summary

 TemperatureHumidityPressure
High72 °F (Apr 24, 4:50 PM)100% (Apr 22, 5:50 AM)30.48 "Hg (Apr 22, 5:50 AM)
Low32 °F (Apr 28, 6:50 AM)30% (Apr 20, 3:50 PM)29.59 "Hg (May 3, 6:50 PM)
Average52 °F68%30.06 "Hg
* Reported Apr 19 7:50 PM — May 4 1:50 PM, Herzogenrath, Weather by CustomWeather, © 2015

Note: Actual official high and low records may vary slightly from our data, if they occured in-between our weather recording intervals... More about our weather records

Advertising

Herzogenrath weather history for previous 24 hours

 ConditionsComfort  
Time TempWeatherWind HumidityBarometerVisibility
1:50 PM
Mon, May 4
64 °FBroken clouds.9 mph60%29.80 "HgN/A
12:50 PM63 °FBroken clouds.8 mph64%29.83 "HgN/A
11:50 AM61 °FBroken clouds.7 mph72%29.83 "HgN/A
10:50 AM59 °FBroken clouds.9 mph77%29.80 "HgN/A
9:50 AM59 °FBroken clouds.8 mph77%29.80 "HgN/A
8:50 AM57 °FPartly sunny.9 mph82%29.80 "HgN/A
7:50 AM57 °FScattered clouds.8 mph82%29.77 "HgN/A
6:50 AM57 °FPassing clouds.8 mph82%29.74 "HgN/A
5:50 AM57 °FPassing clouds.9 mph88%29.74 "HgN/A
4:50 AM57 °FPassing clouds.3 mph88%29.74 "HgN/A
3:50 AM57 °FPassing clouds.3 mph88%29.71 "HgN/A
2:50 AM57 °FPassing clouds.5 mph88%29.71 "HgN/A
1:50 AM57 °FPartly cloudy.7 mph88%29.71 "HgN/A
12:50 AM59 °FPartly cloudy.8 mph82%29.71 "HgN/A
11:50 PM
Sun, May 3
59 °FClear.9 mph82%29.68 "Hg10 mi
10:50 PM59 °FClear.9 mph88%29.68 "Hg10 mi
9:50 PM61 °FPartly sunny.13 mph77%29.65 "HgN/A
8:50 PM63 °FScattered clouds.7 mph88%29.59 "HgN/A
7:50 PM63 °FBroken clouds.10 mph88%29.59 "HgN/A
6:50 PM63 °FBroken clouds.9 mph88%29.59 "HgN/A
Weather by CustomWeather, © 2015

See weather overviewHow to use our weather pages